SUNDSVALL-HARNOSAND FLY current weather conditions

sailwx.info

Wind from 160 at 14 knots

Air temperature 4.0° C
Visibility: greater than 5.4 NM
Dewpoint -1.0° C

Last reported at 2014-Oct-23 11:20 UTC.
Time now 2014-Oct-23 13:08 UTC

Location: N 62°32' E 017°27'.
View on Google Maps.

See reports from other nearby stations

  
Tides and Currents Weather Stations Pressure Air Temp Water Temp Dewpoint Dewpoint Depression Visibility Wind Speed Wind Dir Waves Ship Positions
date/time (UTC)wind fromknots sea level pressurealtimeterstation pressurevisibilityair tempwater tempwave heightnotes
2014-Oct-23 12:20 160 16 5.4 4.0 Light rain.
2014-Oct-23 11:50 160 16 5.4 5.0
2014-Oct-23 11:20 160 14 5.4 4.0
2014-Oct-23 10:50 160 12 5.4 4.0
2014-Oct-23 10:20 160 13 5.4 4.0
2014-Oct-23 09:50 160 15 5.4 4.0
2014-Oct-23 09:20 150 14 5.4 3.0
2014-Oct-23 08:50 160 10 5.4 3.0
2014-Oct-23 08:20 150 9 5.4 2.0
2014-Oct-23 07:50 170 10 5.4 3.0 Drizzle.
2014-Oct-23 07:20 180 10 5.4 3.0 Light rain.
2014-Oct-23 06:50 180 8 5.4 3.0 Light rain.
2014-Oct-23 06:20 150 19 4.3 3.0 Drizzle.
2014-Oct-23 05:50 160 12 5.4 2.0 Light rain.
2014-Oct-23 05:20 160 10 5.4 3.0
2014-Oct-23 04:50 150 8 5.4 3.0
2014-Oct-23 04:20 160 7 5.4 2.0
2014-Oct-23 03:50 190 9 gusting 26 2.7 2.0 Rain.
2014-Oct-23 03:20 170 12 3.2 3.0 Light rain.
2014-Oct-23 02:50 150 19 5.4 3.0 Drizzle.
2014-Oct-23 02:20 150 16 3.8 3.0 Light rain.
2014-Oct-23 01:50 140 15 5.4 4.0 Drizzle.
2014-Oct-23 01:20 140 16 5.4 4.0
2014-Oct-23 00:50 140 16 5.4 4.0
2014-Oct-23 00:20 140 15 5.4 4.0
2014-Oct-22 23:50 140 16 5.4 4.0
2014-Oct-22 23:20 130 14 5.4 4.0
2014-Oct-22 22:50 130 15 5.4 4.0
2014-Oct-22 22:20 130 17 5.4 4.0
2014-Oct-22 21:50 140 17 5.4 4.0
2014-Oct-22 21:20 150 17 5.4 4.0
2014-Oct-22 20:50 140 16 5.4 4.0
2014-Oct-22 20:20 140 16 5.4 4.0
2014-Oct-22 19:50 140 14 5.4 4.0
2014-Oct-22 19:20 130 13 5.4 4.0
2014-Oct-22 18:50 120 11 5.4 4.0
2014-Oct-22 18:20 120 11 5.4 4.0
2014-Oct-22 17:50 120 10 5.4 3.0
2014-Oct-22 17:20 110 9 5.4 3.0
2014-Oct-22 16:50 120 11 5.4 3.0
2014-Oct-22 16:20 120 9 5.4 3.0
2014-Oct-22 15:50 100 7 5.4 2.0 Light rain snow.
2014-Oct-22 15:20 120 10 5.4 3.0
2014-Oct-22 14:50 130 14 5.4 4.0
2014-Oct-22 14:20 110 9 5.4 3.0
2014-Oct-22 13:50 110 6 5.4 3.0
2014-Oct-22 13:20 130 12 4.3 2.0 Light rain.
2014-Oct-22 12:50 120 12 5.4 3.0
2014-Oct-22 12:20 120 11 5.4 3.0
2014-Oct-22 11:50 110 10 5.4 3.0
2014-Oct-22 11:20 110 10 5.4 3.0
2014-Oct-22 10:50 120 11 5.4 3.0
2014-Oct-22 10:20 060 4 5.4 2.0 Light drizzle.
2014-Oct-22 09:50 070 3 4.9 2.0 Light rain.
2014-Oct-22 09:20 080 6 4.3 1.0 Light rain.
2014-Oct-22 08:50 090 5 3.2 2.0 Light rain snow.
2014-Oct-22 08:20 080 3 5.4 2.0 Light rain.
2014-Oct-22 07:50 060 6 4.9 2.0 Rain showers.
2014-Oct-22 07:20 080 8 5.4 2.0 Light snow grains.
2014-Oct-22 06:50 070 4 5.4 1.0
2014-Oct-22 06:20 060 9 4.3 1.0 Snow grains.
2014-Oct-22 05:50 060 5 5.4 1.0
2014-Oct-22 05:20 070 6 2.1 1.0 Light snow grains.
2014-Oct-22 04:50 060 6 2.7 1.0 Light snow.
2014-Oct-22 04:20 050 5 5.4 1.0 Snow.
2014-Oct-22 03:50 050 5 2.5 1.0 Light snow.
2014-Oct-22 03:20 060 7 5.4 1.0
2014-Oct-22 02:50 070 8 5.4 1.0
2014-Oct-22 02:20 070 6 5.4 1.0
2014-Oct-22 01:50 080 7 5.4 1.0
2014-Oct-22 01:20 080 9 1.6 1.0 Light snow.
2014-Oct-22 00:50 080 9 5.4 1.0
2014-Oct-22 00:20 100 11 5.4 1.0 Precipitation.
2014-Oct-21 23:50 110 12 2.7 1.0 Snow grains.
2014-Oct-21 23:20 090 7 5.4 2.0
2014-Oct-21 22:50 100 6 5.4 2.0
2014-Oct-21 22:20 090 8 5.4 2.0
2014-Oct-21 21:50 090 10 5.4 2.0 Precipitation.
2014-Oct-21 21:20 090 10 5.4 1.0
2014-Oct-21 20:50 100 6 5.4 1.0 Snow grains.
2014-Oct-21 20:20 080 10 4.9 2.0 Snow grains.
2014-Oct-21 19:50 080 7 5.4 2.0
2014-Oct-21 19:20 080 8 5.4 2.0
2014-Oct-21 18:50 090 9 5.4 2.0
2014-Oct-21 18:20 060 8 5.4 2.0
2014-Oct-21 17:50 070 7 5.4 2.0
2014-Oct-21 17:20 070 6 5.4 2.0
2014-Oct-21 16:50 070 7 5.4 2.0
2014-Oct-21 16:20 070 8 5.4 2.0
2014-Oct-21 15:50 070 10 2.2 2.0 Mist.
2014-Oct-21 15:20 080 7 5.4 2.0
2014-Oct-21 14:50 080 8 5.4 2.0 Drizzle.
2014-Oct-21 14:20 080 7 5.4 3.0 Drizzle.
2014-Oct-21 13:50 090 10 5.4 3.0 Light rain.
2014-Oct-21 13:20 090 8 5.4 3.0 Drizzle.